This demonstration page uses our WeatherBlox Daily Observations layout. Learn more.

Left ArrowRight Arrow

41.86663, -103.66717

Hourly Observations for August 10, 2022

Temp ( °F °C ) Dew Point ( °F °C ) Humidity (%) Winds ( mph kmh ) Pressure ( in mb ) Visibility ( mi km ) Precip ( " mm )
12:53 am 00:53 Clear 70 21.1 55 12.8 59 59 E 8 13 30.04 1017 10 16 0.00 0.00
1:53 am 01:53 Clear 70 21.1 56 13.3 61 61 ENE 8 13 30.04 1017 10 16 0.00 0.00
2:53 am 02:53 Clear 71 21.7 58 14.4 63 63 E 9 15 30.05 1018 10 16 0.00 0.00
3:53 am 03:53 Clear 73 22.8 59 15 61 61 ESE 5 7 30.05 1018 10 16 0.00 0.00
4:53 am 04:53 Clear 68 20 60 15.6 76 76 ENE 7 11 30.07 1018 10 16 0.00 0.00
5:53 am 05:53 Clear 67 19.4 59 15 76 76 ENE 7 11 30.07 1018 10 16 0.00 0.00
6:53 am 06:53 Sunny 71 21.7 60 15.6 68 68 E 6 9 30.08 1019 10 16 0.00 0.00
7:53 am 07:53 Sunny 76 24.4 61 16.1 60 60 E 7 11 30.09 1019 10 16 0.00 0.00
8:53 am 08:53 Sunny 81 27.2 62 16.7 53 53 ESE 7 11 30.10 1019 10 16 0.00 0.00
9:53 am 09:53 Sunny 84 28.9 64 17.8 51 51 E 8 13 30.10 1019 10 16 0.00 0.00
10:53 am 10:53 Sunny 89 31.7 64 17.8 44 44 E 10 17 30.09 1019 10 16 0.00 0.00
11:53 am 11:53 Sunny 95 35 59 15 30 30 ESE 9 15 30.07 1018 10 16 0.00 0.00
12:53 pm 12:53 Sunny 97 36.1 57 13.9 27 27 E 15 24 30.06 1018 10 16 0.00 0.00
1:53 pm 13:53 Sunny 98 36.7 55 12.8 24 24 E 13 20 30.04 1017 10 16 0.00 0.00
2:53 pm 14:53 Sunny 100 37.8 49 9.4 18 18 SSE 12 19 30.02 1017 10 16 0.00 0.00
3:53 pm 15:53 Mostly Sunny 98 36.7 53 11.7 22 22 E 14 22 30.01 1016 10 16 0.00 0.00
4:53 pm 16:53 Mostly Sunny 99 37.2 46 7.8 17 17 SSE 9 15 30.00 1016 10 16 0.00 0.00
5:53 pm 17:53 Sunny 98 36.7 43 6.1 15 15 SE 13 20 30.00 1016 10 16 0.00 0.00
6:53 pm 18:53 Sunny 94 34.4 45 7.2 19 19 SSE 12 19 29.98 1015 10 16 0.00 0.00
7:53 pm 19:53 Sunny 82 27.8 54 12.2 38 38 E 7 11 30.00 1016 10 16 0.00 0.00
8:53 pm 20:53 Clear 76 24.4 53 11.7 45 45 E 7 11 30.03 1017 10 16 0.00 0.00
9:53 pm 21:53 Clear 73 22.8 52 11.1 48 48 E 7 11 30.04 1017 10 16 0.00 0.00
10:53 pm 22:53 Clear 74 23.3 51 10.6 45 45 E 5 7 30.04 1017 10 16 0.00 0.00
11:53 pm 23:53 Clear 72 22.2 51 10.6 48 48 Calm 30.04 1017 10 16 0.00 0.00

Powered by AerisWeather